Location: Shandelee
(41.8790°N, 74.8713°W)
Time: 04:32:09
(UTC+00:00)

Cosmos 1553 Rocket - Pass Details

Date: 29 October 2020
Orbit: 940 x 1009 km, 82.9° (Epoch: 23 November)

Event Time Altitude Azimuth Distance (km) Brightness Sun altitude
Rises 22:53:26 0° 178° (S) 3,712 7.1 -11.1°
Reaches altitude 10° 22:55:59 10° 177° (S) 2,760 6.4 -11.5°
Maximum altitude 23:02:17 71° 94° (E) 1,043 4.0 -12.7°
Drops below altitude 10° 23:08:31 10° 12° (NNE) 2,734 6.2 -13.9°
Sets 23:11:02 0° 10° (N) 3,676 6.9 -14.3°
